map of TFS home
TFS - Airport
Location
City:  Granadilla de Abone, Tenerife Island, Canary Islands, Spain
Name:Tenerife Sur
Old (Alt.):Tenerife South, Reina Sofía
ICAO:GCTS
IATA:TFS

Details
Type:Airport (Aerodrome, Airfield)
Use:Public/Civil
Latitude:28°02'40"N (28.044475)
Longitude:16°34'21"W (-16.572488)
Datum:WGS 1984
Elevation:209 ft (64 m)
Variation:5.05°W (WMM2015 magnetic declination)
0.12° annual change
Runways:1
Longest:10499 × 148 ft (3200 × 45 m), paved

Time
Time Zone:UTC+0 (DST+1)
Local Time:

Weather
METAR:GCTS 162200Z 07018KT 9999 FEW030 22/14 Q1018 NOSIG
TAF:GCTS 162000Z 1621/1721 03006KT CAVOK TX27/1714Z TN19/1705Z
TEMPO 1711/1720 08025G35KT
BECMG 1709/1711 08022KT

Related Locations
Nearby:
Farthest:NLK: 12162 mi / 19573 km
Norfolk Island, NF

Find:

   beyond  
but within

Other Information
Maps:
NOTAMs:
Links:
Sources:

  
  • flag of Spain
  • flag of Canary Islands
  • flag of Tenerife Island
  

Sectional Chart

Flight Planning
at skyvector.com

Satellite Image

Google Maps Satellite view

 

Copyright © 2004-2018 Karl L. Swartz. All rights reserved.
The Great Circle Mapper name and logo are trademarks of the Great Circle Mapper.
All other trademarks mentioned herein belong to their respective owners.
Please see credits for attibutions and further copyright information.

  Follow gcmap on Facebook Follow gcmap on Twitter Follow gcmap on Google+ GCmap on LinkedIn

hCard Microformat

Geo Microformat